Location: Filler
(36.7551°N, 30.4456°E)
Time: 14:54:46
(UTC+00:00)

NOSS 2-2 (E) - Pass Details

Date: 25 September 2024
Orbit: 399 x 1743 km, 63.3° (Epoch: 11 October)

Event Time Altitude Azimuth Distance (km) Brightness Sun altitude
Exits shadow 01:51:07 15° 6° (N) 1,211 5.3 -24.0°
Drops below altitude 10° 01:51:47 10° 12° (NNE) 1,458 5.8 -23.9°
Sets 01:53:52 0° 23° (NNE) 2,314 7.1 -23.5°
